Dordrecht, Netherlands

8:09 AM CEST on October 17, 2017 (GMT +0200)
Dordrecht

Weather History for 06344 - July, 2013

Change the Weather History Date:

Sunday, July 21, 2013

  Actual Average Record
Temperature  
Mean Temperature 71 °F -  
Max Temperature 86 °F 70 °F - ()
Min Temperature 56 °F 55 °F - ()
Cooling Degree Days 6    
Growing Degree Days 21 (Base 50)    
Moisture  
Dew Point 60 °F    
Average Humidity 68    
Maximum Humidity 100    
Minimum Humidity 32    
Precipitation  
Precipitation 0.00 in - - ()
Sea Level Pressure  
Sea Level Pressure 30.10 in    
Wind  
Wind Speed 5 mph ()    
Max Wind Speed 9 mph    
Max Gust Speed -    
Visibility 6.6 miles    
Events      
T = Trace of Precipitation, MM = Missing Value Source: Averaged Metar Reports

Daily Weather History Graph

Daily Weather History Graph

Search for Another Location

Airport or City:

Trip Planner

Search our weather history database for the weather conditions in past years. The results will help you decide how hot, cold, wet, or windy it might be!

Date:

Astronomy

Jul. 21, 2013 Rise Set
Actual Time 5:48 AM CEST 9:48 PM CEST
Civil Twilight 5:04 AM CEST 10:31 PM CEST
Nautical Twilight 4:01 AM CEST 11:33 PM CEST
Astronomical Twilight 2:21 AM CEST 1:16 AM CEST
Moon 8:27 PM CEST (7/21) 4:18 AM CEST (7/21)
Length of Visible Light 17h 27m
Length of Day
15h 59m
Waxing Gibbous, 97% of the Moon is Illuminated
Jul 21
Waxing Gibbous
Jul 22
Full
Jul 29
Last Quarter
Aug 6
New
Aug 14
First Quarter

Hourly Weather History & Observations

Time (CEST) Temp. Heat Index Dew Point Humidity Pressure Visibility Wind Dir Wind Speed Gust Speed Precip Events Conditions
12:25 AM 60.8 °F - 57.2 °F 88% 30.15 in 6.2 mi NE 1.2 mph - N/A   Unknown
12:55 AM 59.0 °F - 55.4 °F 88% 30.15 in 6.2 mi NNE 2.3 mph - N/A   Unknown
1:25 AM 57.2 °F - 55.4 °F 94% 30.15 in 6.2 mi North 3.5 mph - N/A   Unknown
1:55 AM 57.2 °F - 57.2 °F 100% 30.15 in 5.0 mi NNE 3.5 mph - N/A   Unknown
2:00 AM 61 °F - 60 °F 95% 30.17 in 5 mi NNE 4.5 mph - -   Mist
2:25 AM 62.6 °F - 60.8 °F 94% 30.15 in 4.3 mi NE 5.8 mph - N/A   Unknown
2:55 AM 60.8 °F - 59.0 °F 94% 30.15 in 4.3 mi NE 5.8 mph - N/A   Unknown
3:25 AM 60.8 °F - 59.0 °F 94% 30.15 in 4.3 mi NE 4.6 mph - N/A   Unknown
3:55 AM 59.0 °F - 59.0 °F 100% 30.15 in 3.7 mi NE 4.6 mph - N/A   Unknown
4:25 AM 60.8 °F - 59.0 °F 94% 30.12 in 3.7 mi NE 4.6 mph - N/A   Unknown
4:55 AM 59.0 °F - 59.0 °F 100% 30.12 in 3.7 mi NE 4.6 mph - N/A   Unknown
5:00 AM 58 °F - 58 °F 100% 30.14 in 4 mi NE 4.5 mph - -   Mist
5:25 AM 59.0 °F - 59.0 °F 100% 30.12 in 3.7 mi NE 3.5 mph - N/A   Unknown
5:55 AM 59.0 °F - 59.0 °F 100% 30.12 in 4.3 mi NE 3.5 mph - N/A   Unknown
6:25 AM 59.0 °F - 59.0 °F 100% 30.12 in 4.3 mi NNE 2.3 mph - N/A   Unknown
6:55 AM 60.8 °F - 59.0 °F 94% 30.12 in 5.0 mi Variable 1.2 mph - N/A   Unknown
7:25 AM 62.6 °F - 60.8 °F 94% 30.12 in 6.2 mi NE 3.5 mph - N/A   Unknown
7:55 AM 64.4 °F - 60.8 °F 88% 30.12 in 6.2 mi NE 4.6 mph - N/A   Unknown
8:00 AM 65 °F - 61 °F 83% 30.14 in 8 mi NE 4.5 mph - -   Partly Cloudy
8:25 AM 66.2 °F - 60.8 °F 83% 30.12 in 6.2 mi East 5.8 mph - N/A   Unknown
8:55 AM 68.0 °F - 60.8 °F 78% 30.12 in 6.2 mi East 6.9 mph - N/A   Unknown
9:25 AM 69.8 °F - 60.8 °F 73% 30.12 in 6.2 mi East 5.8 mph - N/A   Unknown
9:55 AM 71.6 °F - 60.8 °F 69% 30.12 in 6.2 mi East 5.8 mph - N/A   Unknown
10:25 AM 73.4 °F - 60.8 °F 65% 30.12 in 6.2 mi East 6.9 mph - N/A   Unknown
10:55 AM 75.2 °F - 60.8 °F 61% 30.12 in 6.2 mi East 8.1 mph - N/A   Unknown
11:00 AM 76 °F - 60 °F 49% 30.13 in 14 mi East 8.9 mph - -   Scattered Clouds
11:25 AM 77.0 °F - 60.8 °F 57% 30.12 in 6.2 mi East 8.1 mph - N/A   Unknown
11:55 AM 78.8 °F - 60.8 °F 54% 30.12 in 6.2 mi East 9.2 mph - N/A   Unknown
12:25 PM 78.8 °F - 60.8 °F 54% 30.09 in 6.2 mi East 9.2 mph - N/A   Unknown
12:55 PM 80.6 °F 81.5 °F 60.8 °F 51% 30.09 in 6.2 mi East 9.2 mph - N/A   Unknown
1:25 PM 82.4 °F 82.5 °F 59.0 °F 45% 30.09 in 6.2 mi East 6.9 mph - N/A   Unknown
1:55 PM 82.4 °F 82.5 °F 59.0 °F 45% 30.09 in 6.2 mi East 6.9 mph - N/A   Unknown
2:00 PM 83 °F - 60 °F 36% 30.11 in 14 mi East 8.9 mph - -   Partly Cloudy
2:25 PM 82.4 °F 82.5 °F 59.0 °F 45% 30.09 in 6.2 mi East 8.1 mph - N/A   Unknown
2:55 PM 84.2 °F 84.4 °F 60.8 °F 45% 30.09 in 6.2 mi ENE 8.1 mph - N/A   Unknown
3:25 PM 84.2 °F 83.8 °F 59.0 °F 42% 30.09 in 6.2 mi Variable 6.9 mph - N/A   Unknown
3:55 PM 86.0 °F 85.4 °F 59.0 °F 40% 30.06 in 6.2 mi Variable 5.8 mph - N/A   Unknown
4:25 PM 86.0 °F 85.4 °F 59.0 °F 40% 30.06 in 6.2 mi ENE 6.9 mph - N/A   Unknown
4:55 PM 86.0 °F 86.1 °F 60.8 °F 43% 30.06 in 6.2 mi ESE 6.9 mph - N/A   Unknown
5:00 PM 85 °F - 60 °F 32% 30.08 in 14 mi East 4.5 mph - -  
5:25 PM 86.0 °F 85.4 °F 59.0 °F 40% 30.06 in 6.2 mi ESE 6.9 mph - N/A   Unknown
5:55 PM 86.0 °F 86.1 °F 60.8 °F 43% 30.06 in 6.2 mi East 6.9 mph - N/A   Unknown
6:25 PM 84.2 °F 83.8 °F 59.0 °F 42% 30.06 in 6.2 mi NE 6.9 mph - N/A   Unknown
6:55 PM 84.2 °F 83.8 °F 59.0 °F 42% 30.04 in 6.2 mi ENE 8.1 mph - N/A   Unknown
7:25 PM 84.2 °F 83.8 °F 59.0 °F 42% 30.04 in 6.2 mi NE 8.1 mph - N/A   Unknown
7:55 PM 80.6 °F 81.5 °F 60.8 °F 51% 30.04 in 6.2 mi NE 8.1 mph - N/A   Unknown
8:00 PM 80 °F - 63 °F 46% 30.06 in 19 mi ENE 6.7 mph - -   Partly Cloudy
8:25 PM 80.6 °F 81.8 °F 62.6 °F 54% 30.04 in 6.2 mi NE 5.8 mph - N/A   Unknown
8:55 PM 78.8 °F - 62.6 °F 57% 30.04 in 6.2 mi ENE 4.6 mph - N/A   Unknown
9:25 PM 77.0 °F - 60.8 °F 57% 30.04 in 6.2 mi NE 5.8 mph - N/A   Unknown
9:55 PM 77.0 °F - 62.6 °F 61% 30.04 in 6.2 mi North 4.6 mph - N/A   Unknown
10:25 PM 75.2 °F - 60.8 °F 61% 30.04 in 6.2 mi North 3.5 mph - N/A   Unknown
10:55 PM 69.8 °F - 62.6 °F 78% 30.04 in 6.2 mi Variable 2.3 mph - N/A   Unknown
11:00 PM 69 °F - 63 °F 76% 30.06 in 15 mi NE 2.2 mph - -  
11:25 PM 69.8 °F - 64.4 °F 83% 30.06 in 6.2 mi NNE 2.3 mph - N/A   Unknown
11:55 PM 68.0 °F - 64.4 °F 88% 30.06 in 6.2 mi NNW 1.2 mph - N/A   Unknown